Greenville-Spartanburg International Airport (GSP)

 

Airport Diagram
Current Weather/Forecast (VFR Conditions)
METAR KGSP 210353Z AUTO 00000KT 10SM CLR 18/13 A3030 RMK AO2 SLP254 T01780133
TAF KGSP 202332Z 2100/2124 14003KT P6SM SKC FM211400 VRB03KT P6SM SKC FM211800 18005KT P6SM SKC

All Charts
General
Chart Name Download
AIRPORT DIAGRAM
TAKEOFF MINIMUMS
ALTERNATE MINIMUMS

Departures
Chart Name Download
BIMMR TWO (RNAV)
BWALL TWO (RNAV)

Arrivals
Chart Name Download
JUNNR THREE (RNAV)
MCHLN TWO (RNAV)
RCTOR TWO (RNAV)
WORXS TWO (RNAV)

Approaches
Chart Name Download
ILS OR LOC RWY 04
ILS OR LOC RWY 22
ILS RWY 04 (SA CAT I)
ILS RWY 04 (CAT II - III)
RNAV (GPS) RWY 04
RNAV (GPS) RWY 22


Inbound Traffic (Arrivals)

No inbound traffic.


Outbound Traffic (Departures)

No outbound traffic.